Regional Weather Roundup
Issued by NWS

Home | Current Version | Previous Version | Graphics & Text | Print | Product List | Glossary Off
Versions: 1 2 3 4 5 6 7 8 9 10 11 12 13 14 15 16 17 18 19 20 21 22 23 24 25 26 27 28 29 30 31 32 33 34 35 36 37 38 39 40 41 42 43 44 45 46 47 48 49 50

137
ASUS43 KTOP 052008
RWRKS

WEATHER ROUNDUP FOR KANSAS
NATIONAL WEATHER SERVICE GOODLAND KS
300 PM CDT THU MAY 05 2016

NOTE:  "FAIR" INDICATES FEW OR NO CLOUDS BELOW 12,000 FEET WITH NO
SIGNIFICANT WEATHER AND/OR OBSTRUCTIONS TO VISIBILITY.

KSZ001>006-013>018-027>032-041>047-052100-
NORTHWEST KANSAS

CITY           SKY/WX    TMP DP  RH WIND       PRES   REMARKS
GOODLAND       SUNNY     80  42  25 S18       30.06F
HAYS           SUNNY     77  46  33 S12       30.07F
HILL CITY      SUNNY     81  47  30 S13       30.06F
RUSSELL        SUNNY     76  44  32 S7        30.06F
$$

KSZ061>065-074>080-084>089-052100-
SOUTHWEST KANSAS

CITY           SKY/WX    TMP DP  RH WIND       PRES   REMARKS
DODGE CITY     SUNNY     77  46  33 SE10      30.08F
ELKHART          N/A     81  44  27 S8          N/A
GARDEN CITY    SUNNY     80  44  27 S14       30.06F
GREAT BEND     SUNNY     77  43  29 SE6       30.07F
LIBERAL        SUNNY     81  48  32 S13       30.07F
PRATT          SUNNY     74  40  29 E6        30.09S
$$

KSZ066>073-081>083-090>101-052100-
SOUTHEAST KANSAS

CITY           SKY/WX    TMP DP  RH WIND       PRES   REMARKS
CHANUTE        SUNNY     76  41  28 VRB6      30.06F
COFFEYVILLE    SUNNY     76  41  28 NW5       30.06F
HUTCHINSON     SUNNY     79  39  23 CALM      30.07F
MEDICINE LODGE   N/A     80  41  24 S8        30.06F
NEWTON         SUNNY     77  39  25 NW5       30.10F
PARSONS        SUNNY     77  43  29 VRB7      30.07F
WICHITA INTL   SUNNY     79  42  26 N7        30.07F
WICHITA JABRA  SUNNY     78  40  25 NW5       30.07F
WICHITA MCCONL SUNNY     78  42  27 VRB3      30.07F
WINFIELD       SUNNY     78  41  26 CALM      30.33R
$$

KSZ007>012-019>026-033>040-048>060-102>105-052100-
NORTHEAST KANSAS

CITY           SKY/WX    TMP DP  RH WIND       PRES   REMARKS
CONCORDIA      SUNNY     78  37  22 CALM      30.06F
EMPORIA        SUNNY     76  39  26 VRB5      30.06F
LAWRENCE       SUNNY     74  40  29 MISG      30.07S
MANHATTAN      SUNNY     78  38  23 MISG      30.06F
MARYSVILLE     SUNNY     73  43  33 CALM      30.07F
OLATHE IND     SUNNY     72  38  29 N6        30.08S
OLATHE EXE     SUNNY     71  35  26 NE9       30.07F
SALINA         SUNNY     78  41  26 VRB3      30.08F
TOPEKA BILLARD SUNNY     75  40  28 NE9       30.07S
TOPEKA FORBES  SUNNY     76  42  29 VRB6      30.07S
$$




USA.gov is the U.S. government's official web portal to all federal, state and local government web resources and services.